KKSNEWCA7 Weather Reports


time (UTC)temp
C
wind
direction
speed
KPH
gust
KPH
rain 1hr
cm
rain 24hr
cm
rain mn
cm
humidity
%
barometer
mb
20260505012018 21 51 3.2 6.4 0.00 0.00 0.00 60 1002.2
20260505011558 21 51 3.2 6.4 0.00 0.00 0.00 59 1001.9
20260505011014 22 44 4.8 8.0 0.00 0.00 0.00 57 1002.0
20260505010520 23 62 4.8 6.4 0.00 0.00 0.00 58 1002.0
20260505010115 23 108 0.0 3.2 0.00 0.00 0.00 59 1002.3
20260505005520 23 108 0.0 1.6 0.00 0.00 0.00 57 1002.5
20260505005017 24 108 0.0 1.6 0.00 0.00 0.00 56 1002.2
20260505004550 24 108 0.0 3.2 0.00 0.00 0.00 51 1002.2
20260505004016 25 108 0.0 4.8 0.00 0.00 0.00 49 1002.2
20260505003517 25 108 1.6 4.8 0.00 0.00 0.00 53 1002.3
20260505003050 25 108 3.2 4.8 0.00 0.00 0.00 48 1002.1
20260505002516 26 108 1.6 4.8 0.00 0.00 0.00 56 1002.4
20260505002016 26 108 3.2 4.8 0.00 0.00 0.00 45 1002.4
20260505001552 26 108 3.2 4.8 0.00 0.00 0.00 41 1002.3
20260505001015 26 108 3.2 4.8 0.00 0.00 0.00 39 1002.3
20260505000516 26 108 1.6 4.8 0.00 0.00 0.00 44 1002.1
20260505000108 26 108 3.2 6.4 0.00 0.00 0.00 45 1002.3
20260504235516 26 109 3.2 4.8 0.00 0.00 0.00 46 1002.3
20260504235016 27 103 3.2 4.8 0.00 0.00 0.00 44 1002.4
20260504234550 27 103 3.2 4.8 0.00 0.00 0.00 48 1002.4
20260504234016 27 105 3.2 6.4 0.00 0.00 0.00 47 1002.5
20260504233518 27 116 3.2 9.7 0.00 0.00 0.00 36 1002.6
20260504233103 27 119 4.8 9.7 0.00 0.00 0.00 37 1002.6
20260504232517 27 105 3.2 6.4 0.00 0.00 0.00 42 1002.5
20260504232015 28 106 3.2 6.4 0.00 0.00 0.00 42 1002.6
20260504231553 28 107 3.2 6.4 0.00 0.00 0.00 41 1002.5
20260504231016 28 98 3.2 11.3 0.00 0.00 0.00 42 1002.3
20260504230516 28 128 4.8 11.3 0.00 0.00 0.00 30 1002.4
20260504230104 28 132 4.8 12.9 0.00 0.00 0.00 33 1002.6
20260504225516 28 168 4.8 12.9 0.00 0.00 0.00 31 1002.6
20260504225017 28 161 4.8 9.7 0.00 0.00 0.00 34 1002.7
20260504224554 28 153 6.4 11.3 0.00 0.00 0.00 30 1002.6
20260504224019 28 156 6.4 11.3 0.00 0.00 0.00 30 1002.5
20260504223518 28 159 6.4 11.3 0.00 0.00 0.00 31 1002.6
20260504223100 28 149 3.2 8.0 0.00 0.00 0.00 32 1002.6
20260504222521 28 183 3.2 11.3 0.00 0.00 0.00 30 1002.6
20260504222021 28 172 4.8 11.3 0.00 0.00 0.00 30 1002.4
20260504221552 28 155 6.4 9.7 0.00 0.00 0.00 30 1002.3
20260504221014 28 149 6.4 11.3 0.00 0.00 0.00 33 1002.5
20260504220518 28 162 4.8 14.5 0.00 0.00 0.00 30 1002.5
20260504220104 28 155 8.0 14.5 0.00 0.00 0.00 31 1002.5
20260504215515 28 158 6.4 12.9 0.00 0.00 0.00 33 1002.4
20260504215017 28 167 6.4 12.9 0.00 0.00 0.00 30 1002.5
20260504214613 28 169 8.0 14.5 0.00 0.00 0.00 31 1002.5
20260504214019 28 221 8.0 14.5 0.00 0.00 0.00 30 1002.6
20260504213516 28 207 8.0 12.9 0.00 0.00 0.00 33 1002.8
20260504213125 28 206 4.8 14.5 0.00 0.00 0.00 32 1002.7
20260504212517 28 174 9.7 16.1 0.00 0.00 0.00 30 1002.8
20260504212019 28 194 8.0 16.1 0.00 0.00 0.00 30 1002.9
20260504211601 28 182 11.3 16.1 0.00 0.00 0.00 33 1003.0
20260504211017 28 211 11.3 16.1 0.00 0.00 0.00 32 1003.0
20260504210517 28 215 8.0 16.1 0.00 0.00 0.00 33 1003.1
20260504210112 28 193 6.4 16.1 0.00 0.00 0.00 32 1003.2
20260504205515 28 212 9.7 16.1 0.00 0.00 0.00 32 1003.3
20260504205017 28 159 6.4 17.7 0.00 0.00 0.00 32 1003.4
20260504204606 28 148 11.3 16.1 0.00 0.00 0.00 31 1003.5
20260504204020 28 213 6.4 14.5 0.00 0.00 0.00 32 1003.4
20260504203520 28 188 9.7 14.5 0.00 0.00 0.00 33 1003.3
20260504203106 27 168 9.7 16.1 0.00 0.00 0.00 33 1003.4
20260504202511 27 207 8.0 16.1 0.00 0.00 0.00 33 1003.5
20260504202010 27 172 11.3 16.1 0.00 0.00 0.00 33 1003.5
20260504201532 28 231 9.7 16.1 0.00 0.00 0.00 33 1003.7
20260504201011 28 217 8.0 14.5 0.00 0.00 0.00 34 1003.7
20260504200512 27 177 8.0 14.5 0.00 0.00 0.00 32 1003.8
20260504200030 27 215 9.7 14.5 0.00 0.00 0.00 33 1003.8
20260504195510 27 175 9.7 16.1 0.00 0.00 0.00 33 1003.8
20260504195012 27 191 6.4 14.5 0.00 0.00 0.00 34 1003.9
20260504194531 27 230 8.0 16.1 0.00 0.00 0.00 34 1004.0
20260504194012 27 160 9.7 14.5 0.00 0.00 0.00 34 1003.9
20260504193511 27 157 8.0 14.5 0.00 0.00 0.00 36 1003.9
20260504193031 27 246 8.0 14.5 0.00 0.00 0.00 39 1003.9
20260504192512 27 236 4.8 14.5 0.00 0.00 0.00 35 1004.0
20260504192010 27 211 6.4 14.5 0.00 0.00 0.00 36 1004.1
20260504191528 27 200 8.0 14.5 0.00 0.00 0.00 35 1004.2
20260504191011 27 215 6.4 9.7 0.00 0.00 0.00 35 1004.4
20260504190512 27 211 4.8 14.5 0.00 0.00 0.00 35 1004.3
20260504190030 27 172 4.8 14.5 0.00 0.00 0.00 34 1004.4
20260504185512 28 123 1.6 12.9 0.00 0.00 0.00 34 1004.5
20260504185017 27 146 9.7 12.9 0.00 0.00 0.00 33 1004.4
20260504184535 27 233 0.0 16.1 0.00 0.00 0.00 36 1004.5
20260504184012 27 248 8.0 16.1 0.00 0.00 0.00 38 1004.6
20260504183509 27 234 1.6 8.0 0.00 0.00 0.00 37 1004.6
20260504183032 27 11 1.6 14.5 0.00 0.00 0.00 39 1004.5
20260504182511 27 101 3.2 14.5 0.00 0.00 0.00 35 1004.5
20260504182013 27 176 9.7 14.5 0.00 0.00 0.00 34 1004.4
20260504181536 27 88 4.8 16.1 0.00 0.00 0.00 38 1004.4
20260504181015 27 154 6.4 16.1 0.00 0.00 0.00 36 1004.5
20260504180511 26 130 4.8 9.7 0.00 0.00 0.00 38 1004.7
20260504180032 26 190 1.6 9.7 0.00 0.00 0.00 39 1004.6
20260504175510 26 44 4.8 8.0 0.00 0.00 0.00 44 1004.5
20260504175011 26 56 3.2 8.0 0.00 0.00 0.00 41 1004.5
20260504174532 26 74 3.2 9.7 0.00 0.00 0.00 42 1004.6
20260504174011 25 76 1.6 9.7 0.00 0.00 0.00 42 1004.6
20260504173510 25 52 4.8 12.9 0.00 0.00 0.00 46 1004.6
20260504173033 25 87 4.8 12.9 0.00 0.00 0.00 46 1004.6
20260504172512 25 76 4.8 12.9 0.00 0.00 0.00 40 1004.7
20260504172014 25 69 4.8 14.5 0.00 0.00 0.00 45 1004.7
20260504171535 25 5 8.0 14.5 0.00 0.00 0.00 46 1004.7
20260504171014 25 29 6.4 14.5 0.00 0.00 0.00 42 1004.7
20260504170519 25 11 6.4 14.5 0.00 0.00 0.00 44 1004.6
20260504151010 20 323 4.8 12.9 0.00 0.00 0.00 55 1004.8
20260504150511 20 308 4.8 14.5 0.00 0.00 0.00 55 1004.9
20260504141011 18 285 4.8 19.3 0.00 0.00 0.00 59 1004.8
20260504140513 18 316 11.3 22.5 0.00 0.00 0.00 58 1004.7
20260504130513 15 334 3.2 8.0 0.00 0.00 0.00 72 1004.3
20260504110513 10 242 0.0 3.2 0.00 0.00 0.00 85 1004.0
20260504100514 8 355 0.0 0.0 0.00 0.00 0.00 81 1004.4
20260504081537 12 282 3.2 8.0 0.00 0.00 0.00 77 1004.9
20260504081014 11 300 1.6 8.0 0.00 0.00 0.00 76 1004.9
20260504080514 11 229 1.6 4.8 0.00 0.00 0.00 75 1005.1
20260504050516 15 218 0.0 3.2 0.00 0.00 0.00 67 1006.2
20260504045515 15 218 0.0 3.2 0.00 0.00 0.00 67 1006.4
20260504045014 16 218 0.0 4.8 0.00 0.00 0.00 68 1006.5
20260504044538 16 218 1.6 4.8 0.00 0.00 0.00 69 1006.5
20260504044015 16 218 3.2 4.8 0.00 0.00 0.00 66 1006.6
20260504043514 16 184 1.6 4.8 0.00 0.00 0.00 66 1006.6
20260504043041 16 189 1.6 11.3 0.00 0.00 0.00 66 1006.8
20260504042513 16 153 6.4 11.3 0.00 0.00 0.00 66 1006.8
20260504042013 15 136 1.6 3.2 0.00 0.00 0.00 67 1006.9
20260504041534 15 136 0.0 3.2 0.00 0.00 0.00 68 1007.0
20260504041014 15 136 0.0 3.2 0.00 0.00 0.00 70 1007.0
20260504040512 15 136 0.0 1.6 0.00 0.00 0.00 69 1007.1
20260504040048 15 136 0.0 3.2 0.00 0.00 0.00 69 1007.2
20260504035520 15 136 0.0 4.8 0.00 0.00 0.00 69 1007.2
20260504035017 15 136 1.6 4.8 0.00 0.00 0.00 69 1007.3
20260504034537 15 136 3.2 6.4 0.00 0.00 0.00 69 1007.3
20260504034013 15 145 3.2 6.4 0.00 0.00 0.00 69 1007.5
20260504033516 15 131 3.2 6.4 0.00 0.00 0.00 68 1007.6
20260504033051 16 118 3.2 6.4 0.00 0.00 0.00 67 1007.7
20260504032515 16 80 3.2 6.4 0.00 0.00 0.00 65 1007.7
20260504032014 16 62 1.6 4.8 0.00 0.00 0.00 64 1007.7
20260504031547 16 62 0.0 1.6 0.00 0.00 0.00 63 1007.7
20260504031015 16 62 0.0 1.6 0.00 0.00 0.00 64 1007.7
20260504030514 16 62 0.0 3.2 0.00 0.00 0.00 62 1007.7
20260504030040 16 62 0.0 3.2 0.00 0.00 0.00 63 1007.7
20260504025514 16 62 1.6 3.2 0.00 0.00 0.00 63 1007.6
20260504025019 16 62 1.6 3.2 0.00 0.00 0.00 62 1007.6
20260504024555 16 62 1.6 3.2 0.00 0.00 0.00 62 1007.6
20260504024017 16 85 1.6 4.8 0.00 0.00 0.00 62 1007.5
20260504023516 17 85 1.6 6.4 0.00 0.00 0.00 62 1007.5
20260504023050 17 85 1.6 4.8 0.00 0.00 0.00 61 1007.5
20260504022516 17 85 1.6 6.4 0.00 0.00 0.00 59 1007.5
20260504022017 18 88 3.2 6.4 0.00 0.00 0.00 59 1007.6
20260504021551 18 96 3.2 9.7 0.00 0.00 0.00 57 1007.4
20260504021015 19 104 4.8 9.7 0.00 0.00 0.00 55 1007.5
20260504020516 20 115 3.2 6.4 0.00 0.00 0.00 54 1007.4
20260504020048 20 115 3.2 6.4 0.00 0.00 0.00 52 1007.3
20260504015516 19 177 1.6 3.2 0.00 0.00 0.00 55 1007.2
20260504015016 19 177 0.0 3.2 0.00 0.00 0.00 58 1007.3
20260504014546 18 240 1.6 4.8 0.00 0.00 0.00 61 1007.2
20260504014018 18 240 3.2 4.8 0.00 0.00 0.00 66 1007.1
20260504013514 19 105 0.0 3.2 0.00 0.00 0.00 60 1007.2
20260504013049 19 105 1.6 4.8 0.00 0.00 0.00 59 1007.1
20260504012517 19 105 3.2 4.8 0.00 0.00 0.00 59 1007.0